Showing default

RAPTOR3, 58958

Orbit data source: Space-Track

RAPTOR3, 58958 is a payload satellite owned by SDA (US) in LEO that was launched on Wed, 14 Feb 2024 UTC via an FALCON 9 launch vehicle from the Air Force Eastern Test Range (AFETR). Payload-class satellites include a variety of spacecraft equipped with specific instruments for various scientific and technological missions. These include communications satellites like Starlink; space stations such as the ISS; scientific satellites like the Hubble; Earth observation satellites from companies like Planet Labs, Umbra, and HawkEye 360; GPS; miniature CubeSats for education and research; and military/defense satellites.

Loading next visibility...
Identifier
58958, 2024-028D
Orbit
LEO
Country
Flag of USUS
Related business
Manufacturer
L3Harris SIS
Mission
Operational Defense Early Warn
Bus & Motor
TPL0-L3H, Unknown motor
Mass
~1,000 kg wet, ~1,000 kg dry
Launch date (UTC)
2024-02-14 (3 years ago)
Launch vehicle
FALCON 9
Launch site
Air Force Eastern Test Range (AFETR)
Object type
Payload
Rocket body
Debris
Shape & HBR
Box + 1 Pan, 1.0 m
Radar Cross Section
0.945 m², Large (>1 m²)

Expand to show TLE details & history
Last TLE update: 7 hours ago

TLE from 7 hours ago
0 RAPTOR3
1 58958U 24028D   26258.25678876 -.00000050  00000-0  31670-4 0  9990
2 58958  39.9929 349.5422 0010278  51.8807 308.2865 13.70489137129427
Epoch: 2026-09-15T06:09Z
TLE epoch observation values (Epoch: 2026-09-15T06:09:46.548Z)
Latitude
-0.00002°
Longitude
-97.12711°
Altitude
992.605 km
Speed
7.359 km/s
True Right ascension
23h 18m 10s
True Declination
0° 00' 00"
Sunlit
Object was in full shadow at epoch
Visualization orbit readout
Latitude
Unknown
Longitude
Unknown
Altitude
Unknown
Speed
Unknown
Apparent Right ascension
Unknown
Apparent Declination
Unknown
Sunlit
N/A
Visualization observer readout
Local Sidereal Time
06:15:07
Azimuth
Unknown
Elevation
Unknown
Doppler factor
Unknown
Orbital elements
Apogee altitude
1,007.675 km
Perigee altitude
992.509 km
Semi-major axis
7,378.229 km
Eccentricity
0.00103
Inclination
39.9929°
RAAN
349.5422°
Arg. of periapsis
51.8807°
True anomaly
308.19398°
Mean anomaly
308.2865°
Eccentric anomaly
308.24025°
Mean motion
3.42464 °/min
Orbital period
105.12 mins
BSTAR
0.00003167
Loading maneuver chart data...
Computing Atmospheric mass density...
Loading historical data...
Loading historical data...
Loading historical data...
Loading historical data...
Loading historical data...
Loading historical data...
Loading historical data...
Other satellites on launch #28 in the year 2024 (2024-02-14 UTC)

Documentation

Showing up to 5 results
|